| time (UTC) | temp F | wind direction | speed MPH | gust MPH | rain 1hr in | rain 24hr in | rain mn in | humidity % | barometer mb |
| 20260831021558 | 75 | 224 | 0.0 | 3.0 | 0.00 | 0.00 | 0.00 | 90 | 1000.9 |
| 20260831020003 | 77 | 144 | 2.0 | 4.0 | 0.00 | 0.00 | 0.00 | 89 | 1000.8 |
| 20260831014542 | 76 | 216 | 2.0 | 4.0 | 0.00 | 0.00 | 0.00 | 88 | 1000.6 |
| 20260831013102 | 77 | 117 | 0.0 | 2.0 | 0.00 | 0.00 | 0.00 | 89 | 1000.7 |
| 20260831011601 | 78 | 117 | 0.0 | 2.0 | 0.00 | 0.00 | 0.00 | 86 | 1000.8 |
| 20260831010122 | 79 | 117 | 1.0 | 4.0 | 0.00 | 0.00 | 0.00 | 84 | 1000.8 |
| 20260831004551 | 80 | 127 | 1.0 | 3.0 | 0.00 | 0.00 | 0.00 | 83 | 1000.9 |
| 20260831003053 | 81 | 120 | 2.0 | 5.0 | 0.00 | 0.00 | 0.00 | 81 | 1001.1 |
| 20260831001554 | 82 | 94 | 2.0 | 6.0 | 0.00 | 0.00 | 0.00 | 79 | 1001.2 |
| 20260831000105 | 83 | 116 | 2.0 | 6.0 | 0.00 | 0.00 | 0.00 | 78 | 1001.2 |
| 20260830234534 | 83 | 93 | 3.0 | 6.0 | 0.00 | 0.00 | 0.00 | 80 | 1001.1 |
| 20260830233007 | 82 | 92 | 3.0 | 6.0 | 0.00 | 0.00 | 0.00 | 80 | 1000.9 |
| 20260830231526 | 83 | 70 | 2.0 | 8.0 | 0.00 | 0.00 | 0.00 | 78 | 1001.1 |
| 20260830230049 | 85 | 56 | 3.0 | 8.0 | 0.00 | 0.00 | 0.00 | 75 | 1001.2 |
| 20260830224525 | 86 | 81 | 4.0 | 8.0 | 0.00 | 0.00 | 0.00 | 74 | 1001.2 |
| 20260830223018 | 85 | 40 | 3.0 | 7.0 | 0.00 | 0.00 | 0.00 | 75 | 1001.4 |
| 20260830221551 | 85 | 58 | 5.0 | 9.0 | 0.00 | 0.00 | 0.00 | 74 | 1001.3 |
| 20260830220024 | 84 | 113 | 3.0 | 9.0 | 0.00 | 0.00 | 0.00 | 74 | 1001.3 |
| 20260830214519 | 85 | 72 | 2.0 | 7.0 | 0.00 | 0.00 | 0.00 | 74 | 1001.4 |
| 20260830213031 | 85 | 43 | 4.0 | 10.0 | 0.00 | 0.00 | 0.00 | 74 | 1001.4 |
| 20260830211525 | 84 | 94 | 4.0 | 9.0 | 0.00 | 0.00 | 0.00 | 74 | 1001.6 |
| 20260830210042 | 83 | 60 | 5.0 | 10.0 | 0.00 | 0.00 | 0.00 | 75 | 1001.7 |
| 20260830204545 | 83 | 130 | 4.0 | 11.0 | 0.00 | 0.00 | 0.00 | 75 | 1001.8 |
| 20260830203123 | 80 | 93 | 3.0 | 7.0 | 0.00 | 0.00 | 0.00 | 80 | 1002.1 |
| 20260830201610 | 78 | 57 | 2.0 | 5.0 | 0.00 | 0.00 | 0.00 | 81 | 1002.3 |
| 20260830194552 | 78 | 131 | 4.0 | 10.0 | 0.00 | 0.00 | 0.00 | 82 | 1002.3 |
| 20260830193023 | 77 | 129 | 3.0 | 10.0 | 0.00 | 0.00 | 0.00 | 82 | 1002.5 |
| 20260830191540 | 77 | 134 | 5.0 | 10.0 | 0.00 | 0.00 | 0.00 | 82 | 1002.8 |
| 20260830190041 | 77 | 127 | 3.0 | 7.0 | 0.00 | 0.00 | 0.00 | 84 | 1002.9 |
| 20260830184604 | 75 | 119 | 3.0 | 8.0 | 0.00 | 0.00 | 0.00 | 85 | 1003.0 |
| 20260830183007 | 74 | 120 | 3.0 | 7.0 | 0.00 | 0.00 | 0.00 | 86 | 1002.9 |
| 20260830181533 | 74 | 105 | 3.0 | 7.0 | 0.00 | 0.00 | 0.00 | 87 | 1003.0 |
| 20260830180046 | 73 | 69 | 4.0 | 8.0 | 0.00 | 0.00 | 0.00 | 88 | 1003.0 |
| 20260830174525 | 73 | 95 | 3.0 | 8.0 | 0.00 | 0.00 | 0.00 | 88 | 1003.1 |
| 20260830173009 | 72 | 113 | 3.0 | 7.0 | 0.00 | 0.00 | 0.00 | 89 | 1003.3 |
| 20260830171600 | 72 | 86 | 4.0 | 8.0 | 0.00 | 0.00 | 0.00 | 90 | 1003.3 |
| 20260830170042 | 71 | 119 | 3.0 | 7.0 | 0.00 | 0.00 | 0.00 | 91 | 1003.3 |
| 20260830164558 | 71 | 128 | 4.0 | 9.0 | 0.00 | 0.00 | 0.00 | 94 | 1003.3 |
| 20260830163103 | 70 | 29 | 4.0 | 7.0 | 0.00 | 0.00 | 0.00 | 95 | 1003.4 |
| 20260830161540 | 69 | 92 | 3.0 | 7.0 | 0.00 | 0.00 | 0.00 | 95 | 1003.5 |
| 20260830160008 | 68 | 75 | 4.0 | 8.0 | 0.00 | 0.00 | 0.00 | 95 | 1003.5 |
| 20260830154529 | 68 | 103 | 3.0 | 8.0 | 0.00 | 0.00 | 0.00 | 95 | 1003.6 |
| 20260830153028 | 68 | 73 | 3.0 | 6.0 | 0.00 | 0.00 | 0.00 | 95 | 1003.7 |
| 20260830151542 | 68 | 58 | 3.0 | 7.0 | 0.00 | 0.00 | 0.00 | 95 | 1003.6 |
| 20260830150035 | 68 | 77 | 2.0 | 6.0 | 0.00 | 0.00 | 0.00 | 95 | 1003.5 |
| 20260830144533 | 68 | 56 | 2.0 | 5.0 | 0.00 | 0.00 | 0.00 | 95 | 1003.5 |
| 20260830143052 | 68 | 73 | 3.0 | 5.0 | 0.00 | 0.00 | 0.00 | 95 | 1003.3 |
| 20260830141539 | 68 | 103 | 2.0 | 5.0 | 0.00 | 0.00 | 0.00 | 95 | 1003.3 |
| 20260830140031 | 68 | 72 | 2.0 | 6.0 | 0.00 | 0.00 | 0.00 | 95 | 1003.1 |
| 20260830134557 | 68 | 100 | 2.0 | 6.0 | 0.00 | 0.00 | 0.00 | 95 | 1003.1 |
| 20260830133012 | 67 | 68 | 1.0 | 4.0 | 0.00 | 0.00 | 0.00 | 95 | 1003.4 |
| 20260830131501 | 67 | 63 | 1.0 | 4.0 | 0.00 | 0.00 | 0.00 | 95 | 1003.3 |
| 20260830130024 | 67 | 108 | 1.0 | 5.0 | 0.00 | 0.00 | 0.00 | 95 | 1003.3 |
| 20260830124551 | 67 | 105 | 1.0 | 5.0 | 0.00 | 0.00 | 0.00 | 94 | 1003.2 |
| 20260830123136 | 67 | 71 | 1.0 | 4.0 | 0.00 | 0.00 | 0.00 | 94 | 1002.9 |
| 20260830121504 | 67 | 68 | 0.0 | 3.0 | 0.00 | 0.00 | 0.00 | 94 | 1003.0 |
| 20260830120018 | 67 | 84 | 0.0 | 2.0 | 0.00 | 0.00 | 0.00 | 94 | 1003.0 |
| 20260830114525 | 67 | 71 | 1.0 | 4.0 | 0.00 | 0.00 | 0.00 | 94 | 1002.9 |
| 20260830113027 | 67 | 108 | 1.0 | 4.0 | 0.00 | 0.00 | 0.00 | 94 | 1003.1 |
| 20260830111555 | 67 | 136 | 1.0 | 3.0 | 0.00 | 0.00 | 0.00 | 94 | 1003.2 |
| 20260830110140 | 66 | 94 | 1.0 | 3.0 | 0.00 | 0.00 | 0.00 | 94 | 1002.8 |
| 20260830104611 | 66 | 129 | 1.0 | 4.0 | 0.00 | 0.00 | 0.00 | 94 | 1002.8 |
| 20260830103034 | 66 | 359 | 0.0 | 3.0 | 0.00 | 0.00 | 0.00 | 94 | 1003.3 |
| 20260830101548 | 66 | 33 | 0.0 | 2.0 | 0.00 | 0.00 | 0.00 | 94 | 1003.2 |
| 20260830100104 | 66 | 33 | 0.0 | 5.0 | 0.00 | 0.00 | 0.00 | 94 | 1003.5 |
| 20260830094619 | 66 | 8 | 1.0 | 3.0 | 0.00 | 0.00 | 0.00 | 94 | 1003.6 |
| 20260830093121 | 66 | 8 | 0.0 | 2.0 | 0.00 | 0.00 | 0.00 | 94 | 1003.7 |
| 20260830091504 | 66 | 8 | 1.0 | 3.0 | 0.00 | 0.00 | 0.00 | 94 | 1003.8 |
| 20260830090052 | 66 | 8 | 0.0 | 0.0 | 0.00 | 0.00 | 0.00 | 94 | 1003.7 |
| 20260830084555 | 66 | 8 | 0.0 | 0.0 | 0.00 | 0.00 | 0.00 | 93 | 1003.5 |
| 20260830083006 | 66 | 8 | 0.0 | 0.0 | 0.00 | 0.00 | 0.00 | 93 | 1003.3 |
| 20260830081557 | 66 | 8 | 0.0 | 0.0 | 0.00 | 0.00 | 0.00 | 93 | 1003.0 |
| 20260830080013 | 66 | 8 | 0.0 | 0.0 | 0.00 | 0.00 | 0.00 | 93 | 1003.2 |
| 20260830074503 | 67 | 8 | 0.0 | 0.0 | 0.00 | 0.00 | 0.00 | 93 | 1003.3 |
| 20260830073008 | 67 | 8 | 0.0 | 2.0 | 0.00 | 0.00 | 0.00 | 93 | 1003.3 |
| 20260830071513 | 66 | 8 | 0.0 | 0.0 | 0.00 | 0.00 | 0.00 | 93 | 1003.3 |
| 20260830070141 | 67 | 8 | 0.0 | 2.0 | 0.00 | 0.00 | 0.00 | 93 | 1003.6 |
| 20260830064516 | 67 | 8 | 0.0 | 2.0 | 0.00 | 0.00 | 0.00 | 93 | 1003.9 |
| 20260830063049 | 67 | 8 | 0.0 | 2.0 | 0.00 | 0.00 | 0.00 | 93 | 1003.8 |
| 20260830061503 | 67 | 8 | 0.0 | 2.0 | 0.00 | 0.00 | 0.00 | 93 | 1004.4 |
| 20260830060010 | 67 | 8 | 0.0 | 2.0 | 0.00 | 0.00 | 0.00 | 93 | 1004.3 |
| 20260830054522 | 67 | 8 | 0.0 | 0.0 | 0.00 | 0.00 | 0.00 | 92 | 1004.4 |
| 20260830053057 | 68 | 8 | 0.0 | 1.0 | 0.00 | 0.00 | 0.00 | 92 | 1004.3 |
| 20260830051518 | 68 | 8 | 0.0 | 3.0 | 0.00 | 0.00 | 0.00 | 92 | 1004.1 |
| 20260830050110 | 68 | 8 | 0.0 | 3.0 | 0.00 | 0.00 | 0.00 | 91 | 1003.9 |
| 20260830044504 | 69 | 108 | 0.0 | 5.0 | 0.00 | 0.00 | 0.00 | 91 | 1003.9 |
| 20260830043015 | 69 | 60 | 0.0 | 1.0 | 0.00 | 0.00 | 0.00 | 91 | 1004.0 |
| 20260830041615 | 69 | 60 | 0.0 | 0.0 | 0.00 | 0.00 | 0.00 | 90 | 1004.6 |
| 20260830040055 | 70 | 60 | 0.0 | 1.0 | 0.00 | 0.00 | 0.00 | 91 | 1004.7 |
| 20260830034557 | 69 | 60 | 0.0 | 0.0 | 0.00 | 0.00 | 0.00 | 90 | 1004.8 |
| 20260830033018 | 70 | 60 | 0.0 | 1.0 | 0.00 | 0.00 | 0.00 | 90 | 1004.7 |
| 20260830031503 | 70 | 60 | 0.0 | 1.0 | 0.00 | 0.00 | 0.00 | 89 | 1004.5 |
| 20260830030032 | 70 | 60 | 0.0 | 0.0 | 0.00 | 0.00 | 0.00 | 88 | 1004.7 |
| 20260830024552 | 70 | 60 | 0.0 | 2.0 | 0.00 | 0.00 | 0.00 | 89 | 1004.7 |
| 20260830023118 | 70 | 60 | 0.0 | 2.0 | 0.00 | 0.00 | 0.00 | 88 | 1004.6 |